Погода в Бутове

Россия / Ивановская область     57°08′34″N   40°26′28″E
темп.,
°C
ветер,
м/с
пор.,
м/с
влажн.,
%
обл.,
%
осадки,
мм/ч
давл.,
гПа
погр.,
м
23 сентября, чт
чт2300:00+7в379892 0.0 1016242
03:00+7в3898100 0.0 1016279
06:00+8в4998100 0.0 1016422
09:00+8в5994100 0.0 1016609
12:00+10вюв5886100 0.0 1015754
15:00+9вюв3896100 2.0 1013651
18:00+9юв41096100 0.4 1012578
21:00+9ююв3698100 0.4 1011332
24 сентября, пт
пт2400:00+7ююв3699100 0.0 1011227
03:00+7юв3796100 0.3 1009252
06:00+8ююв4897100 0.1 1008339
09:00+9ююв51087100 0.1 1008612
12:00+10ююв697465 0.1 10071068
15:00+10ююв6972100 0.3 10071173
18:00+8юв4981100 0.1 1007253
21:00+8юв41183100 0.3 1007448
25 сентября, сб
сб2500:00+8юв49867 0.0 1007367
03:00+7в3892100 0.1 1004238
06:00+6юв389299 0.0 1008165
09:00+9юв3777100 0.0 1008278
12:00+11ю356186 0.0 1008518
15:00+12ююз345795 0.0 1009749
18:00+10юз2270100 0.0 100940
21:00+9зюз2281100 0.0 100944
26 сентября, вс
вс2600:00+8юз2283100 0.0 100967
03:00+6ю229241 0.1 101024
06:00+6ю229386 0.0 101012
09:00+9юз128387 0.3 1010210
12:00+11св2272100 1.1 1011346
15:00+11св237399 1.9 1013500
18:00+9ссв358759 0.4 1015106
21:00+8св3693100 0.5 1017217
27 сентября, пн
пн2700:00+7ссв3796100 0.1 1018212
03:00+7ссв4994100 0.1 1020425
06:00+7ссв41096100 0.1 1022556
09:00+9св5990100 0.1 1023660
12:00+9всв5884100 0.1 1026731
15:00+8всв5786100 0.1 1028741
18:00+7всв5988100 0.1 1030613
21:00+6всв4985100 0.1 1032597